Regional Weather Roundup
Issued by NWS State College, PA

Home | Current Version | Previous Version | Text Only | Print | Product List | Glossary On
Versions: 1 2 3 4 5 6 7 8 9 10 11 12 13 14 15 16 17 18 19 20 21 22 23 24 25 26 27 28 29 30 31 32 33 34 35 36 37 38 39 40 41 42 43 44 45 46 47 48 49 50
000
ASUS41 KCTP 092110
RWRCTP

REGIONAL WEATHER ROUNDUP
NATIONAL WEATHER SERVICE STATE COLLEGE PA
400 PM EST TUE FEB 09 2016

Note: "fair" indicates few or no clouds below 12,000 feet with no
significant weather and/or obstructions to visibility.

* = STATION THAT DOES NOT REPORT PRECIPITATION /E.G. RAIN...SNOW...ETC/
    THUNDER OR FOG.

PAZ002>004-007>009-013>016-020>023-029>032-092200-
WESTERN PENNSYLVANIA

CITY           SKY/WX    TMP DP  RH WIND       PRES   REMARKS
ERIE           CLOUDY    33  25  72 SW13      29.54R
MEADVILLE      CLOUDY    30  24  78 W10       29.52R
FRANKLIN*      CLOUDY    28  21  74 W7        29.54S
NEW CASTLE     CLOUDY    30  25  81 W7        29.59R
BEAVER COUNTY  CLOUDY    28  25  86 W7        29.57R
BUTLER*        CLOUDY    28  23  80 W9        29.60R
PITTSBURGH INT CLOUDY    28  22  78 W9        29.59R
PITTSBURGH     LGT SNOW  29  23  78 SW12      29.59R
INDIANA*       FOG       27  27 100 W10G17    29.58R VSB 1
LATROBE        LGT SNOW  27  25  93 SW12G23   29.60R VSB 1
WASHINGTON CO* CLOUDY    27  19  74 SW13G20   29.62R
$$

PAZ004>006-010>012-017>019-024>028-033>037-041-042-045-046-049>053-092200-
CENTRAL PENNSYLVANIA

CITY           SKY/WX    TMP DP  RH WIND       PRES   REMARKS
BRADFORD       CLOUDY    31  22  69 W12G20    29.45R
DUBOIS         CLOUDY    30  24  78 W14       29.48R
CLEARFIELD     SNOW      29  27  92 SW8       29.49R VSB 1/4
JOHNSTOWN      LGT SNOW  23  17  78 W13       29.49R WCI  11
ALTOONA        LGT SNOW  29  22  75 SW10      29.52R
STATE COLLEGE  LGT SNOW  32  30  93 SW8       29.49R VSB 1
WILLIAMSPORT   LGT SNOW  34  30  85 E6        29.53R FOG
SELINSGROVE    LGT SNOW  32  29  88 CALM      29.55R VSB 3/4
FT INDIANTOWN  LGT SNOW  32  32 100 E2        29.55R VSB 1
CAPITAL CITY   LGT SNOW  32  28  85 CALM      29.56R VSB 3/4
HARRISBURG     LGT SNOW  32  29  88 CALM      29.55R VSB 3/4
YORK           SNOW      32  30  92 CALM      29.55R VSB 1/2
$$

PAZ038>040-043-044-047-048-054-055-060>062-067>071-092200-
EASTERN PENNSYLVANIA

CITY           SKY/WX    TMP DP  RH WIND       PRES   REMARKS
SCRANTON       LGT SNOW  34  26  72 W3        29.50R
MOUNT POCONO   LGT SNOW  29  24  82 SE5       29.46R
ALLENTOWN      LGT SNOW  34  28  80 E5        29.56R
QUAKERTOWN*    CLOUDY    32  28  86 SE3       29.55S
READING        SNOW      32  30  92 NW5       29.55R VSB 1/2
LANCASTER      SNOW      31  30  96 E5        29.55S VSB 1/2
COATESVILLE    SNOW      32  32 100 CALM      29.54S VSB 1/4
POTTSTOWN      LGT SNOW  31  30  96 E6        29.57R VSB 3/4
BLUE BELL        N/A     32  32 100 NE3       29.55R
DOYLESTOWN     LGT SNOW  30  28  92 NE3       29.55S FOG
WILLOW GROVE   NOT AVBL
NORTH PHILA    LGT SNOW  36  30  79 E7        29.58S
PHILADELPHIA   LGT SNOW  36  31  82 NE9       29.56S
$$



USA.gov is the U.S. government's official web portal to all federal, state and local government web resources and services.